When you browse on this site, cookies collect data to enhance your experience and personalize the content and advertising you see.
Visit our Privacy Policy to learn more. By continuing to use the site, you agree to this use of cookies and data.
  • En España
  • Lista de países
  • Para 7 días
  • Temperatura del agua
  • Mapa Satelital
  • El tiempo en el mapa
  • Informadores
  • user-avatar
    Iniciar sesión

    Tiempo cada hora Umag

    Hoy, 22 Abril, Lunes

    Tiempo Temperatura Precipitaciones Viento Presión Humedad
    00:00 +13°C° 0 mm 2 mps 764 mmHg 57%
    01:00 +13°C° 0 mm 2 mps 763 mmHg 53%
    02:00 +13°C° 0 mm 2 mps 763 mmHg 56%
    03:00 +13°C° 0 mm 2 mps 763 mmHg 60%
    04:00 +12°C° 0 mm 2 mps 762 mmHg 63%
    05:00 +13°C° 0 mm 2 mps 762 mmHg 63%
    06:00 +14°C° 0 mm 2 mps 762 mmHg 63%
    07:00 +16°C° 0 mm 2 mps 761 mmHg 63%
    08:00 +17°C° 0 mm 2 mps 761 mmHg 61%
    09:00 +18°C° 0 mm 2 mps 760 mmHg 59%
    10:00 +20°C° 0 mm 3 mps 760 mmHg 56%
    11:00 +20°C° 0 mm 3 mps 759 mmHg 54%
    12:00 +21°C° 0 mm 4 mps 759 mmHg 52%
    13:00 +21°C° 0 mm 4 mps 758 mmHg 50%
    14:00 +21°C° 0 mm 4 mps 758 mmHg 51%
    15:00 +20°C° 0 mm 4 mps 758 mmHg 53%
    16:00 +20°C° 0 mm 4 mps 757 mmHg 54%
    17:00 +18°C° 0 mm 3 mps 757 mmHg 61%
    18:00 +17°C° 0 mm 3 mps 757 mmHg 67%
    19:00 +15°C° 0 mm 2 mps 757 mmHg 74%
    20:00 +15°C° 0 mm 2 mps 757 mmHg 74%
    21:00 +14°C° 0 mm 3 mps 757 mmHg 74%
    22:00 +14°C° 0 mm 4 mps 757 mmHg 74%
    23:00 +14°C° 0.5 mm 4 mps 757 mmHg 77%

    Mañana, 23 Abril, Martes

    Tiempo Temperatura Precipitaciones Viento Presión Humedad
    00:00 +13°C° 0.5 mm 4 mps 756 mmHg 80%
    01:00 +13°C° 0.5 mm 4 mps 756 mmHg 83%
    02:00 +13°C° 2.1 mm 4 mps 755 mmHg 85%
    03:00 +13°C° 2.1 mm 5 mps 755 mmHg 88%
    04:00 +12°C° 2.1 mm 5 mps 754 mmHg 91%
    05:00 +13°C° 1.3 mm 5 mps 754 mmHg 91%
    06:00 +13°C° 1.3 mm 5 mps 754 mmHg 90%
    07:00 +13°C° 1.3 mm 5 mps 754 mmHg 90%
    08:00 +13°C° 0.5 mm 5 mps 754 mmHg 89%
    09:00 +14°C° 0.5 mm 6 mps 754 mmHg 87%
    10:00 +14°C° 0.5 mm 6 mps 754 mmHg 86%
    11:00 +15°C° 0.1 mm 6 mps 754 mmHg 83%
    12:00 +16°C° 0.1 mm 7 mps 754 mmHg 80%
    13:00 +16°C° 0.1 mm 7 mps 754 mmHg 77%
    14:00 +16°C° 0.2 mm 7 mps 754 mmHg 79%
    15:00 +16°C° 0.2 mm 7 mps 754 mmHg 82%
    16:00 +16°C° 0.2 mm 7 mps 754 mmHg 84%
    17:00 +15°C° 1.4 mm 6 mps 754 mmHg 88%
    18:00 +15°C° 1.4 mm 5 mps 754 mmHg 91%
    19:00 +14°C° 1.4 mm 4 mps 754 mmHg 94%
    20:00 +15°C° 0.3 mm 4 mps 755 mmHg 94%
    21:00 +15°C° 0.3 mm 4 mps 755 mmHg 93%
    22:00 +15°C° 0.3 mm 4 mps 756 mmHg 93%
    23:00 +15°C° 0.2 mm 4 mps 756 mmHg 93%

    Pasado mañana, 24 Abril, Miércoles

    Tiempo Temperatura Precipitaciones Viento Presión Humedad
    00:00 +15°C° 0.2 mm 5 mps 757 mmHg 93%
    01:00 +14°C° 0.2 mm 5 mps 757 mmHg 93%
    02:00 +14°C° 0.1 mm 5 mps 757 mmHg 93%
    03:00 +14°C° 0.1 mm 5 mps 757 mmHg 93%
    04:00 +14°C° 0.1 mm 4 mps 758 mmHg 93%
    05:00 +14°C° 0 mm 4 mps 758 mmHg 92%
    06:00 +14°C° 0 mm 4 mps 759 mmHg 91%
    07:00 +15°C° 0 mm 4 mps 759 mmHg 90%
    08:00 +15°C° 0.1 mm 4 mps 760 mmHg 88%
    09:00 +17°C° 0.1 mm 4 mps 761 mmHg 87%
    10:00 +16°C° 0.1 mm 5 mps 761 mmHg 85%
    11:00 +17°C° 0.1 mm 5 mps 761 mmHg 83%
    12:00 +19°C° 0.1 mm 5 mps 762 mmHg 81%
    13:00 +19°C° 0.1 mm 5 mps 762 mmHg 79%
    14:00 +19°C° 0 mm 6 mps 762 mmHg 79%
    15:00 +19°C° 0 mm 6 mps 762 mmHg 79%
    16:00 +19°C° 0 mm 6 mps 762 mmHg 80%
    17:00 +17°C° 0 mm 6 mps 762 mmHg 83%
    18:00 +16°C° 0 mm 5 mps 762 mmHg 86%
    19:00 +15°C° 0 mm 5 mps 762 mmHg 89%
    20:00 +15°C° 0 mm 4 mps 763 mmHg 91%
    21:00 +14°C° 0 mm 4 mps 763 mmHg 92%
    22:00 +14°C° 0 mm 3 mps 763 mmHg 93%
    23:00 +14°C° 0 mm 3 mps 763 mmHg 93%

    25 Abril, Jueves

    Tiempo Temperatura Precipitaciones Viento Presión Humedad
    00:00 +14°C° 0 mm 3 mps 763 mmHg 92%
    01:00 +14°C° 0 mm 3 mps 763 mmHg 92%
    02:00 +13°C° 0 mm 3 mps 764 mmHg 92%
    03:00 +13°C° 0 mm 3 mps 764 mmHg 91%
    04:00 +13°C° 0 mm 3 mps 764 mmHg 91%
    05:00 +14°C° 0 mm 3 mps 764 mmHg 88%
    06:00 +16°C° 0 mm 3 mps 764 mmHg 85%
    07:00 +16°C° 0 mm 3 mps 764 mmHg 82%
    08:00 +17°C° 0 mm 3 mps 764 mmHg 81%
    09:00 +18°C° 0 mm 4 mps 764 mmHg 79%
    10:00 +19°C° 0 mm 4 mps 764 mmHg 77%
    11:00 +20°C° 0 mm 4 mps 764 mmHg 74%
    12:00 +20°C° 0 mm 4 mps 764 mmHg 72%
    13:00 +21°C° 0 mm 4 mps 763 mmHg 69%
    14:00 +21°C° 0 mm 4 mps 763 mmHg 69%
    15:00 +21°C° 0 mm 4 mps 763 mmHg 69%
    16:00 +21°C° 0 mm 4 mps 763 mmHg 68%
    17:00 +20°C° 0 mm 3 mps 763 mmHg 74%
    18:00 +18°C° 0 mm 2 mps 763 mmHg 80%
    19:00 +17°C° 0 mm 2 mps 763 mmHg 86%
    20:00 +16°C° 0 mm 2 mps 763 mmHg 86%
    21:00 +16°C° 0 mm 2 mps 763 mmHg 87%
    22:00 +15°C° 0 mm 2 mps 763 mmHg 88%
    23:00 +14°C° 0.1 mm 3 mps 763 mmHg 88%

    26 Abril, Viernes

    Tiempo Temperatura Precipitaciones Viento Presión Humedad
    00:00 +14°C° 0.1 mm 3 mps 763 mmHg 87%
    01:00 +14°C° 0.1 mm 3 mps 763 mmHg 87%
    02:00 +14°C° 0.1 mm 3 mps 762 mmHg 87%
    03:00 +14°C° 0.1 mm 3 mps 762 mmHg 87%
    04:00 +13°C° 0.1 mm 4 mps 762 mmHg 88%
    05:00 +14°C° 0 mm 4 mps 762 mmHg 85%
    06:00 +15°C° 0 mm 4 mps 761 mmHg 82%
    07:00 +17°C° 0 mm 4 mps 761 mmHg 80%
    08:00 +18°C° 0.1 mm 4 mps 761 mmHg 76%
    09:00 +20°C° 0.1 mm 4 mps 761 mmHg 71%
    10:00 +21°C° 0.1 mm 4 mps 761 mmHg 67%
    11:00 +21°C° 0.4 mm 4 mps 760 mmHg 68%
    12:00 +21°C° 0.4 mm 4 mps 760 mmHg 69%
    13:00 +22°C° 0.4 mm 5 mps 760 mmHg 70%
    14:00 +21°C° 0.7 mm 5 mps 759 mmHg 72%
    15:00 +21°C° 0.7 mm 4 mps 759 mmHg 74%
    16:00 +20°C° 0.7 mm 4 mps 759 mmHg 75%
    17:00 +19°C° 0.8 mm 4 mps 759 mmHg 80%
    18:00 +17°C° 0.8 mm 4 mps 760 mmHg 84%
    19:00 +15°C° 0.8 mm 4 mps 760 mmHg 88%
    20:00 +14°C° 0.5 mm 3 mps 760 mmHg 90%
    21:00 +15°C° 0.5 mm 2 mps 761 mmHg 92%
    22:00 +14°C° 0.5 mm 2 mps 761 mmHg 94%
    23:00 +14°C° 0 mm 1 mps 761 mmHg 94%

    27 Abril, Sábado

    Tiempo Temperatura Precipitaciones Viento Presión Humedad
    00:00 +13°C° 0 mm 1 mps 761 mmHg 94%
    01:00 +13°C° 0 mm 1 mps 761 mmHg 95%
    02:00 +13°C° 0.3 mm 1 mps 762 mmHg 94%
    03:00 +13°C° 0.3 mm 1 mps 762 mmHg 94%
    04:00 +12°C° 0.3 mm 2 mps 762 mmHg 94%
    05:00 +13°C° 0.6 mm 2 mps 762 mmHg 90%
    06:00 +14°C° 0.6 mm 2 mps 763 mmHg 87%
    07:00 +14°C° 0.6 mm 3 mps 763 mmHg 84%
    08:00 +16°C° 0.2 mm 3 mps 763 mmHg 77%
    09:00 +16°C° 0.2 mm 3 mps 763 mmHg 70%
    10:00 +17°C° 0.2 mm 2 mps 764 mmHg 63%
    11:00 +18°C° 0 mm 2 mps 764 mmHg 59%
    12:00 +19°C° 0 mm 2 mps 764 mmHg 55%
    13:00 +21°C° 0 mm 1 mps 764 mmHg 51%
    14:00 +20°C° 0 mm 2 mps 764 mmHg 52%
    15:00 +20°C° 0 mm 3 mps 764 mmHg 54%
    16:00 +19°C° 0 mm 4 mps 764 mmHg 55%
    17:00 +17°C° 0 mm 3 mps 764 mmHg 62%
    18:00 +16°C° 0 mm 2 mps 765 mmHg 69%
    19:00 +14°C° 0 mm 2 mps 765 mmHg 76%
    20:00 +14°C° 0 mm 2 mps 765 mmHg 75%
    21:00 +14°C° 0 mm 2 mps 766 mmHg 75%
    22:00 +13°C° 0 mm 2 mps 766 mmHg 74%
    23:00 +13°C° 0 mm 1 mps 766 mmHg 74%
    Mostrar más